This is the latest recevied weather packets stored in our database for station/object K0NV. If no packets are shown the sender has not sent any weather packets the latest 10 day(s).
| Time | Temp. | Humidity | Pressure | Rain* | Wind** | Luminosity | Snow |
|---|---|---|---|---|---|---|---|
| 1778070907 | 6.67° C | 98% | 1018.3 hPa | 0 mm | - | 29 W/m² | - |
| 1778070604 | 6.67° C | 98% | 1018.1 hPa | 0 mm | - | 21 W/m² | - |
| 1778070301 | 6.67° C | 98% | 1018.4 hPa | 0 mm | - | 15 W/m² | - |
| 1778069999 | 6.67° C | 98% | 1018.2 hPa | 0 mm | - | 14 W/m² | - |
| 1778069696 | 6.67° C | 99% | 1018.1 hPa | 0 mm | - | 12 W/m² | - |
| 1778069392 | 6.67° C | 99% | 1017.7 hPa | 0 mm | - | 10 W/m² | - |
| 1778069090 | 6.67° C | 99% | 1017.9 hPa | 0 mm | - | 9 W/m² | - |
| 1778068787 | 6.67° C | 99% | 1017.8 hPa | 0 mm | - | 11 W/m² | - |
| 1778068485 | 6.67° C | 99% | 1017.8 hPa | 0 mm | - | 9 W/m² | - |
| 1778068183 | 6.67° C | 99% | 1017.7 hPa | 0 mm | - | 8 W/m² | - |
| 1778067881 | 6.67° C | 99% | 1017.7 hPa | 0 mm | - | 6 W/m² | - |
| 1778067579 | 6.67° C | 99% | 1017.7 hPa | 0 mm | - | 6 W/m² | - |
| 1778067277 | 6.67° C | 99% | 1017.4 hPa | 0 mm | - | 3 W/m² | - |
| 1778066973 | 6.67° C | 99% | 1017.2 hPa | 0 mm | - | 1 W/m² | - |
| 1778066671 | 6.67° C | 99% | 1017.1 hPa | 0 mm | - | 0 W/m² | - |
| 1778066367 | 6.67° C | 99% | 1016.9 hPa | 0 mm | - | 0 W/m² | - |
| 1778066066 | 6.67° C | 99% | 1016.7 hPa | 0 mm | - | 0 W/m² | - |
| 1778065762 | 6.67° C | 99% | 1016.5 hPa | 0 mm | - | 0 W/m² | - |
| 1778065460 | 6.67° C | 99% | 1016.6 hPa | 0 mm | - | 0 W/m² | - |
| 1778065156 | 6.67° C | 99% | 1016.4 hPa | 0 mm | - | 0 W/m² | - |
| 1778064853 | 6.67° C | 99% | 1016.4 hPa | 0 mm | - | 0 W/m² | - |
| 1778064550 | 6.67° C | 99% | 1016.1 hPa | 0 mm | - | 0 W/m² | - |
| 1778064248 | 6.67° C | 99% | 1016.1 hPa | 0 mm | - | 0 W/m² | - |
| 1778063946 | 6.67° C | 99% | 1016 hPa | 0 mm | - | 0 W/m² | - |
| 1778063643 | 6.67° C | 99% | 1016.1 hPa | 0 mm | - | 0 W/m² | - |
* Rain latest hour (hover to see other rain measurements)
** Current wind speed in m/s (hover to see current wind gust speed)